Flag for Russia

Past Weather in Kemerovo, Russia — Yesterday and Last 2 Weeks

Now
61 °F

Clear.


Feels Like: 61 °F
Forecast: 65 / 47 °F
Wind: 3 mph from South

Location: Kemerovo
Current Time: Sep 21, 2020 at 9:15:05 pm
Latest Report: Sep 21, 2020 at 8:30 pm
Visibility: N/A
Pressure29.83 "Hg
Humidity: 48%
Dew Point: 41 °F
Location of KemerovoLocation

Past Weather in Kemerovo — Graph

°F

Kemerovo Temperature Yesterday

Maximum temperature yesterday: 68 °F (at 3:00 pm)
Minimum temperature yesterday: 46 °F (at 6:30 am)
Average temperature yesterday: 56 °F

High & Low Weather Summary for the Past Weeks

 TemperatureHumidityPressure
High72 °F (Sep 21, 3:30 pm)100% (Sep 7, 3:00 am)30.39 "Hg (Sep 7, 3:00 am)
Low37 °F (Sep 12, 6:30 am)33% (Sep 21, 5:00 pm)29.62 "Hg (Sep 17, 7:30 pm)
Average52 °F77%30.03 "Hg
* Reported Sep 6 7:00 pm — Sep 21 7:30 pm, Kemerovo. Weather by CustomWeather, © 2020

Note: Actual official high and low records may vary slightly from our data, if they occured in-between our weather recording intervals... More about our weather records

Kemerovo Weather History for the Previous 24 Hours

Scroll right to see more
 ConditionsComfort  
Time TempWeatherWind HumidityBarometerVisibility
7:30 pm
Mon, Sep 21
64 °FSunny.3 mph40%29.83 "Hg10 mi
7:00 pm66 °FClear.3 mph40%29.83 "HgN/A
6:30 pm68 °FSunny.3 mph38%29.83 "Hg10 mi
6:00 pm68 °FSunny.6 mph38%29.83 "Hg10 mi
5:30 pm70 °FSunny.8 mph33%29.86 "Hg10 mi
5:00 pm72 °FSunny.10 mph33%29.86 "Hg10 mi
4:30 pm72 °FSunny.8 mph41%29.86 "Hg10 mi
4:00 pm72 °FSunny.8 mph44%29.86 "Hg10 mi
3:30 pm72 °FSunny.8 mph44%29.86 "Hg10 mi
3:00 pm70 °FSunny.8 mph46%29.89 "Hg10 mi
2:30 pm68 °FSunny.8 mph53%29.89 "Hg10 mi
2:00 pm66 °FSunny.8 mph60%29.89 "Hg10 mi
1:30 pm64 °FSunny.8 mph60%29.92 "Hg10 mi
1:00 pm63 °FSunny.8 mph64%29.92 "Hg10 mi
12:30 pm61 °FSunny.8 mph63%29.92 "Hg10 mi
12:00 pm59 °FSunny.6 mph68%29.92 "Hg10 mi
11:30 am57 °FSunny.6 mph67%29.95 "Hg10 mi
11:00 am55 °FSunny.6 mph72%29.95 "Hg10 mi
10:30 am54 °FSunny.6 mph77%29.95 "Hg10 mi
7:00 am46 °FClear.6 mph93%29.98 "Hg10 mi
6:30 am46 °FClear.6 mph93%30.01 "Hg10 mi
6:00 am48 °FClear.6 mph87%30.01 "Hg10 mi
5:30 am48 °FClear.6 mph87%30.01 "Hg10 mi
5:00 am48 °FClear.3 mph87%30.01 "Hg10 mi
4:30 am48 °FClear.1 mph87%30.01 "Hg10 mi
4:00 am48 °FClear.3 mph87%30.04 "Hg10 mi
3:30 am50 °FClear.3 mph82%30.04 "Hg10 mi
3:00 am50 °FClear.3 mph82%30.04 "Hg10 mi
2:30 am50 °FClear.3 mph82%30.04 "Hg10 mi
2:00 am50 °FClear.3 mph82%30.07 "Hg10 mi
1:30 am50 °FClear.3 mph82%30.07 "Hg10 mi
1:00 am50 °FClear.3 mph82%30.07 "Hg10 mi
12:30 am50 °FClear.3 mph82%30.07 "Hg10 mi
12:00 am50 °FClear.3 mph82%30.07 "Hg10 mi
11:30 pm
Sun, Sep 20
52 °FClear.3 mph77%30.07 "Hg10 mi
11:00 pm54 °FClear.3 mph72%30.07 "Hg10 mi
10:30 pm54 °FClear.3 mph72%30.09 "Hg10 mi
10:00 pm55 °FClear.3 mph67%30.09 "Hg10 mi
9:30 pm57 °FClear.3 mph63%30.09 "Hg10 mi
9:00 pm57 °FClear.3 mph63%30.09 "Hg10 mi
Weather by CustomWeather, © 2020

See weather overview